Dale Hollow Observed Data For Previous 48 Hours

Caption
Day and Hour Reservoir Elevation (behind dam)* Tailwater Elevation (below dam)* Average Hourly Discharge*
12/11/2018 1 AM CST 646.80 512.70 3,445
12/11/2018 2 AM CST 646.80 512.70 3,445
12/11/2018 3 AM CST 646.80 512.70 3,545
12/11/2018 4 AM CST 646.80 512.70 3,545
12/11/2018 5 AM CST 646.81 512.71 3,445
12/11/2018 6 AM CST 646.81 512.81 3,445
12/11/2018 7 AM CST 646.81 513.01 3,245
12/11/2018 8 AM CST 646.80 513.10 3,445
12/11/2018 9 AM CST 646.81 513.11 3,445
12/11/2018 10 AM CST 646.81 513.01 3,445
12/11/2018 11 AM CST 646.80 512.90 3,445
12/11/2018 12 PM CST 646.80 512.70 3,245
12/11/2018 1 PM CST 646.80 512.50 3,425
12/11/2018 2 PM CST 646.80 512.40 3,225
12/11/2018 3 PM CST 646.80 512.30 3,225
12/11/2018 4 PM CST 646.80 512.30 3,225
12/11/2018 5 PM CST 646.80 512.30 3,225
12/11/2018 6 PM CST 646.80 512.30 3,225
12/11/2018 7 PM CST 646.80 512.50 3,225
12/11/2018 8 PM CST 646.80 512.50 3,325
12/11/2018 9 PM CST 646.80 512.60 3,345
12/11/2018 10 PM CST 646.80 512.60 3,345
12/11/2018 11 PM CST 646.80 512.60 3,345
12/12/2018 12 AM CST 646.80 512.60 3,245
12/12/2018 1 AM CST 646.80 512.60 3,345
12/12/2018 2 AM CST 646.80 512.50 3,325
12/12/2018 3 AM CST 646.80 512.50 3,325
12/12/2018 4 AM CST 646.80 512.50 3,325
12/12/2018 5 AM CST 646.80 512.50 3,425
12/12/2018 6 AM CST 646.80 512.50 3,425
12/12/2018 7 AM CST 646.76 512.66 3,345
12/12/2018 8 AM CST 646.75 512.65 3,245
12/12/2018 9 AM CST 646.75 512.65 3,245
12/12/2018 10 AM CST 646.75 512.65 3,445
12/12/2018 11 AM CST 646.75 512.45 3,425
12/12/2018 12 PM CST 646.75 512.45 3,325
12/12/2018 1 PM CST 646.75 512.35 3,225
12/12/2018 2 PM CST 646.75 512.25 3,225
12/12/2018 3 PM CST 646.75 512.25 3,225
12/12/2018 4 PM CST 646.75 512.15 3,225
12/12/2018 5 PM CST 646.71 512.21 3,225
12/12/2018 6 PM CST 646.69 512.19 3,225
12/12/2018 7 PM CST 646.71 512.11 3,225
12/12/2018 8 PM CST 646.69 512.19 3,225
12/12/2018 9 PM CST 646.69 512.19 3,225
12/12/2018 10 PM CST 646.69 512.19 3,045
12/12/2018 11 PM CST 646.69 512.09 3,225
12/13/2018 12 AM CST 646.69 512.09 3,225
12/13/2018 1 AM CST 646.69 511.99 3,045
12/13/2018 2 AM CST 646.69 511.99 3,135
12/13/2018 3 AM CST 646.69 511.99 3,045
12/13/2018 4 AM CST 646.69 511.99 3,135
12/13/2018 5 AM CST 646.69 511.99 3,045
12/13/2018 6 AM CST 646.69 512.29 3,225
12/13/2018 7 AM CST 646.69 512.29 3,225
12/13/2018 8 AM CST 646.69 512.39 3,225
12/13/2018 9 AM CST 646.65 512.45 3,245
12/13/2018 10 AM CST 646.65 512.45 3,155
12/13/2018 11 AM CST 646.64 512.14 3,160
12/13/2018 12 PM CST 646.64 512.14 3,045
12/13/2018 1 PM CST 646.64 512.14 3,045
12/13/2018 2 PM CST 646.64 511.94 3,045
12/13/2018 3 PM CST 646.64 511.94 3,045
12/13/2018 4 PM CST 646.64 512.04 3,045

Elevations are in feet above sea level. Discharges are in cubic feet per second and are reported at the end of the hour.